Date String (YYYY-MM-DD hh:mm:ss) UTC,Instrument flags,Ambient pressure (hPa),Sample flow (lpm),Bypass flow (lpm),Sample temperature (°C),Ambient temperature (°C),ASC tube jacket temperature (°C),LED temperature (°C),Box temperature (°C),Sample RH (%),Span deviation,Mass concentration (μg/m³),Mass concentration (μg/m³),Mass concentration (μg/m³)
DateTimeUTC,F1_M11,P_M11,Q1_M11,Q2_M11,T1_M11,T2_M11,T3_M11,T4_M11,T5_M11,U1_M11,ZSPAN_M11,X2_M11,X0_M11,X1_M11
2021-12-13 10:00:00,,0824.8,5.01,0.00,24.7,23.8,00.0,33.6,26.4,06.0,0000.0,0001.72,0007.51,0001.01
2021-12-13 10:01:00,,0824.8,4.99,0.00,24.7,23.8,00.0,33.6,26.4,06.0,0000.0,0001.66,0007.42,0000.99
2021-12-13 10:02:00,,0824.8,4.99,0.00,24.7,23.8,00.0,33.6,26.4,06.0,0000.0,0001.68,0008.19,0000.99
2021-12-13 10:03:00,,0824.7,5.00,0.00,24.6,23.8,00.0,33.6,26.3,06.0,0000.0,0001.67,0008.99,0000.98
2021-12-13 10:04:00,,0824.7,5.01,0.00,24.6,23.7,00.0,33.6,26.3,06.0,0000.0,0001.62,0009.88,0000.97
2021-12-13 10:05:00,,0824.7,4.99,0.00,24.6,23.7,00.0,33.6,26.3,06.1,0000.0,0001.59,0009.53,0000.98
2021-12-13 10:06:00,,0824.7,5.00,0.00,24.6,23.7,00.0,33.6,26.2,06.0,0000.0,0001.55,0009.71,0001.00
2021-12-13 10:07:00,,0824.8,5.01,0.00,24.5,23.7,00.0,33.6,26.2,06.0,0000.0,0001.54,0009.74,0001.01
2021-12-13 10:08:00,,0824.8,4.99,0.00,24.5,23.7,00.0,33.6,26.3,06.0,0000.0,0001.55,0009.23,0001.02
2021-12-13 10:09:00,,0824.7,5.00,0.00,24.5,23.7,00.0,33.6,26.3,06.0,0000.0,0001.58,0008.41,0001.02
2021-12-13 10:10:00,,0824.7,5.01,0.00,24.5,23.6,00.0,33.6,26.2,06.0,0000.0,0001.57,0008.30,0001.00
2021-12-13 10:11:00,,0824.7,5.00,0.00,24.5,23.6,00.0,33.6,26.2,06.0,0000.0,0001.53,0008.22,0001.01
2021-12-13 10:12:00,,0824.8,5.01,0.00,24.5,23.6,00.0,33.5,26.2,06.1,0000.0,0001.55,0008.21,0001.01
2021-12-13 10:13:00,,0824.9,4.98,0.00,24.5,23.6,00.0,33.5,26.2,06.1,0000.0,0001.56,0007.68,0001.03
2021-12-13 10:14:00,,0824.8,5.00,0.00,24.5,23.6,00.0,33.5,26.1,06.1,0000.0,0001.57,0006.64,0001.03
2021-12-13 10:15:00,,0824.8,5.01,0.00,24.4,23.6,00.0,33.5,26.2,06.1,0000.0,0001.62,0004.15,0001.03
2021-12-13 10:16:00,,0824.8,5.00,0.00,24.5,23.6,00.0,33.5,26.2,06.1,0000.0,0001.65,0003.86,0001.02
2021-12-13 10:17:00,,0824.7,4.99,0.00,24.5,23.6,00.0,33.5,26.2,06.1,0000.0,0001.64,0003.67,0001.02
2021-12-13 10:18:00,,0824.8,5.01,0.00,24.5,23.6,00.0,33.5,26.2,06.0,0000.0,0001.71,0003.52,0001.01
2021-12-13 10:19:00,,0824.8,4.99,0.00,24.4,23.6,00.0,33.5,26.1,06.1,0000.0,0001.73,0003.57,0001.00
2021-12-13 10:20:00,,0824.8,5.00,0.00,24.4,23.6,00.0,33.5,26.2,06.0,0000.0,0001.76,0003.65,0001.01
2021-12-13 10:21:00,,0824.8,5.01,0.00,24.4,23.6,00.0,33.5,26.1,06.0,0000.0,0001.80,0003.74,0001.03
2021-12-13 10:22:00,,0824.8,5.00,0.00,24.4,23.5,00.0,33.5,26.1,06.0,0000.0,0001.83,0004.10,0001.02
2021-12-13 10:23:00,,0824.8,5.01,0.00,24.4,23.5,00.0,33.4,26.1,06.0,0000.0,0001.85,0004.56,0001.02
2021-12-13 10:24:00,,0824.8,4.99,0.00,24.4,23.5,00.0,33.4,26.1,06.0,0000.0,0001.85,0005.09,0001.01
2021-12-13 10:25:00,,0824.8,5.00,0.00,24.4,23.5,00.0,33.4,26.1,06.0,0000.0,0001.84,0005.00,0001.00
2021-12-13 10:26:00,,0824.9,4.99,0.00,24.4,23.5,00.0,33.4,26.0,06.0,0000.0,0001.80,0005.03,0000.99
2021-12-13 10:27:00,,0824.9,5.02,0.00,24.3,23.5,00.0,33.4,26.0,06.0,0000.0,0001.78,0004.95,0000.98
2021-12-13 10:28:00,,0824.9,4.99,0.00,24.3,23.5,00.0,33.4,26.0,06.0,0000.0,0001.76,0004.74,0000.97
2021-12-13 10:29:00,,0824.9,5.01,0.00,24.3,23.4,00.0,33.4,26.0,06.0,0000.0,0001.75,0004.63,0000.97
2021-12-13 10:30:00,,0824.9,5.00,0.00,24.3,23.4,00.0,33.4,26.0,06.0,0000.0,0001.68,0004.44,0000.98
2021-12-13 10:31:00,,0824.9,5.00,0.00,24.3,23.4,00.0,33.4,25.9,06.0,0000.0,0001.67,0004.44,0000.97
2021-12-13 10:32:00,,0824.9,5.01,0.00,24.3,23.4,00.0,33.4,25.9,06.0,0000.0,0001.66,0006.01,0000.97
2021-12-13 10:33:00,,0824.9,5.00,0.00,24.3,23.4,00.0,33.3,25.9,06.1,0000.0,0001.69,0006.07,0000.98
2021-12-13 10:34:00,,0824.8,4.99,0.00,24.2,23.4,00.0,33.3,25.9,06.1,0000.0,0001.73,0005.66,0001.00
2021-12-13 10:35:00,,0824.9,5.01,0.00,24.3,23.4,00.0,33.3,25.9,06.2,0000.0,0001.71,0005.16,0001.02
2021-12-13 10:36:00,,0824.8,5.00,0.00,24.2,23.4,00.0,33.3,25.9,06.2,0000.0,0001.72,0005.08,0001.03
2021-12-13 10:37:00,,0824.9,5.01,0.00,24.2,23.3,00.0,33.3,25.9,06.2,0000.0,0001.77,0005.05,0001.06
2021-12-13 10:38:00,,0824.9,5.00,0.00,24.2,23.3,00.0,33.3,25.8,06.2,0000.0,0001.83,0005.43,0001.08
2021-12-13 10:39:00,,0824.9,4.99,0.00,24.2,23.3,00.0,33.3,25.8,06.2,0000.0,0001.88,0005.64,0001.11
2021-12-13 10:40:00,,0824.9,5.01,0.00,24.2,23.3,00.0,33.3,25.9,06.2,0000.0,0001.89,0005.69,0001.14
2021-12-13 10:41:00,,0824.9,5.00,0.00,24.2,23.3,00.0,33.2,25.8,06.2,0000.0,0001.92,0005.80,0001.16
2021-12-13 10:42:00,,0824.9,4.99,0.00,24.2,23.3,00.0,33.2,25.9,06.2,0000.0,0001.94,0005.79,0001.18
2021-12-13 10:43:00,,0824.9,5.00,0.00,24.2,23.3,00.0,33.2,25.9,06.2,0000.0,0001.93,0004.43,0001.20
2021-12-13 10:44:00,,0824.9,5.00,0.00,24.1,23.3,00.0,33.2,25.9,06.2,0000.0,0001.92,0004.09,0001.20
2021-12-13 10:45:00,,0824.9,4.99,0.00,24.1,23.3,00.0,33.2,25.8,06.1,0000.0,0001.87,0003.93,0001.21
2021-12-13 10:46:00,,0824.9,5.00,0.00,24.1,23.3,00.0,33.2,25.8,06.1,0000.0,0001.87,0004.04,0001.21
2021-12-13 10:47:00,,0824.9,5.01,0.00,24.1,23.3,00.0,33.2,25.8,06.1,0000.0,0001.87,0006.38,0001.20
2021-12-13 10:48:00,,0824.9,4.99,0.00,24.1,23.3,00.0,33.2,25.8,06.1,0000.0,0001.86,0006.52,0001.19
2021-12-13 10:49:00,,0824.9,5.01,0.00,24.1,23.3,00.0,33.2,25.8,06.1,0000.0,0001.80,0006.12,0001.19
2021-12-13 10:50:00,,0824.9,5.02,0.00,24.1,23.3,00.0,33.2,25.7,06.1,0000.0,0001.78,0006.09,0001.18
2021-12-13 10:51:00,,0824.9,4.99,0.00,24.1,23.3,00.0,33.1,25.7,06.1,0000.0,0001.72,0005.98,0001.15
2021-12-13 10:52:00,,0824.9,5.00,0.00,24.1,23.3,00.0,33.1,25.7,06.0,0000.0,0001.67,0005.93,0001.13
2021-12-13 10:53:00,,0824.9,5.00,0.00,24.1,23.3,00.0,33.1,25.7,06.1,0000.0,0001.62,0005.87,0001.11
2021-12-13 10:54:00,,0824.9,5.00,0.00,24.1,23.3,00.0,33.1,25.8,06.0,0000.0,0001.55,0005.65,0001.09
2021-12-13 10:55:00,,0824.9,5.01,0.00,24.1,23.2,00.0,33.1,25.7,06.0,0000.0,0001.47,0005.46,0001.06
2021-12-13 10:56:00,,0824.9,5.01,0.00,24.1,23.3,00.0,33.1,25.8,06.0,0000.0,0001.43,0005.33,0001.04
2021-12-13 10:57:00,,0824.9,5.00,0.00,24.1,23.3,00.0,33.1,25.7,05.9,0000.0,0001.39,0004.99,0001.02
2021-12-13 10:58:00,,0824.9,4.99,0.00,24.1,23.3,00.0,33.1,25.7,05.9,0000.0,0001.32,0002.48,0001.00
2021-12-13 10:59:00,,0824.9,5.00,0.00,24.1,23.2,00.0,33.1,25.7,05.9,0000.0,0001.26,0002.22,0000.99
